• In Österreich
  • Länderverzeichnis
  • Für 7 Tage
  • Wassertemperatur
  • Satellitenkarten
  • Wetterkarte
  • News
  • Widgets
  • user-avatar
    Anmelden

    Stündliche Wetter Karzanovo

    Heute, 20 August, Montag

    Zeit Temperatur Niederschläge Wind Luftdruck Luftfeuchtigkeit
    00:00 +15°C° 0 mm 2 m/S 740 mmHg 94%
    01:00 +15°C° 0 mm 1 m/S 740 mmHg 94%
    02:00 +14°C° 0 mm 1 m/S 740 mmHg 95%
    03:00 +14°C° 0 mm 1 m/S 740 mmHg 96%
    04:00 +15°C° 0 mm 1 m/S 740 mmHg 96%
    05:00 +15°C° 0 mm 1 m/S 740 mmHg 96%
    06:00 +16°C° 0 mm 2 m/S 740 mmHg 93%
    07:00 +17°C° 0 mm 2 m/S 740 mmHg 89%
    08:00 +19°C° 0 mm 2 m/S 740 mmHg 86%
    09:00 +20°C° 0,1 mm 3 m/S 739 mmHg 80%
    10:00 +21°C° 0,1 mm 3 m/S 739 mmHg 74%
    11:00 +22°C° 0,1 mm 4 m/S 739 mmHg 69%
    12:00 +23°C° 0,1 mm 4 m/S 739 mmHg 67%
    13:00 +23°C° 0,1 mm 4 m/S 738 mmHg 66%
    14:00 +23°C° 0,1 mm 4 m/S 738 mmHg 64%
    15:00 +24°C° 0,2 mm 3 m/S 738 mmHg 69%
    16:00 +22°C° 0,2 mm 3 m/S 737 mmHg 73%
    17:00 +23°C° 0,2 mm 2 m/S 737 mmHg 78%
    18:00 +21°C° 0,1 mm 2 m/S 736 mmHg 82%
    19:00 +20°C° 0,1 mm 2 m/S 736 mmHg 86%
    20:00 +19°C° 0,1 mm 2 m/S 736 mmHg 89%
    21:00 +18°C° 0,1 mm 3 m/S 735 mmHg 91%
    22:00 +18°C° 0,1 mm 3 m/S 735 mmHg 92%
    23:00 +18°C° 0,1 mm 4 m/S 734 mmHg 94%

    Morgen, 21 August, Dienstag

    Zeit Temperatur Niederschläge Wind Luftdruck Luftfeuchtigkeit
    00:00 +18°C° 0 mm 4 m/S 734 mmHg 94%
    01:00 +18°C° 0 mm 4 m/S 733 mmHg 94%
    02:00 +18°C° 0 mm 4 m/S 733 mmHg 94%
    03:00 +18°C° 0,2 mm 4 m/S 732 mmHg 94%
    04:00 +17°C° 0,2 mm 4 m/S 732 mmHg 95%
    05:00 +17°C° 0,2 mm 4 m/S 731 mmHg 95%
    06:00 +16°C° 0,3 mm 5 m/S 731 mmHg 94%
    07:00 +16°C° 0,3 mm 5 m/S 731 mmHg 93%
    08:00 +16°C° 0,3 mm 5 m/S 731 mmHg 92%
    09:00 +17°C° 0,3 mm 6 m/S 731 mmHg 85%
    10:00 +19°C° 0,3 mm 6 m/S 732 mmHg 77%
    11:00 +19°C° 0,3 mm 6 m/S 732 mmHg 70%
    12:00 +19°C° 0,1 mm 6 m/S 732 mmHg 65%
    13:00 +20°C° 0,1 mm 6 m/S 733 mmHg 60%
    14:00 +20°C° 0,1 mm 6 m/S 733 mmHg 54%
    15:00 +19°C° 0 mm 6 m/S 734 mmHg 57%
    16:00 +17°C° 0 mm 5 m/S 734 mmHg 59%
    17:00 +16°C° 0 mm 5 m/S 734 mmHg 62%
    18:00 +15°C° 0,1 mm 4 m/S 735 mmHg 70%
    19:00 +13°C° 0,1 mm 4 m/S 735 mmHg 78%
    20:00 +12°C° 0,1 mm 3 m/S 736 mmHg 87%
    21:00 +11°C° 0 mm 3 m/S 736 mmHg 89%
    22:00 +11°C° 0 mm 3 m/S 737 mmHg 91%
    23:00 +10°C° 0 mm 3 m/S 737 mmHg 94%

    übermorgen, 22 August, Mittwoch

    Zeit Temperatur Niederschläge Wind Luftdruck Luftfeuchtigkeit
    00:00 +10°C° 0 mm 3 m/S 737 mmHg 93%
    01:00 +9°C° 0 mm 3 m/S 738 mmHg 93%
    02:00 +9°C° 0 mm 3 m/S 738 mmHg 93%
    03:00 +9°C° 0 mm 3 m/S 738 mmHg 93%
    04:00 +8°C° 0 mm 3 m/S 739 mmHg 93%
    05:00 +8°C° 0 mm 3 m/S 739 mmHg 92%
    06:00 +8°C° 0 mm 4 m/S 740 mmHg 84%
    07:00 +11°C° 0 mm 4 m/S 740 mmHg 76%
    08:00 +12°C° 0 mm 5 m/S 741 mmHg 69%
    09:00 +13°C° 0 mm 5 m/S 741 mmHg 61%
    10:00 +14°C° 0 mm 5 m/S 741 mmHg 54%
    11:00 +15°C° 0 mm 5 m/S 742 mmHg 47%
    12:00 +16°C° 0 mm 5 m/S 742 mmHg 46%
    13:00 +16°C° 0 mm 5 m/S 742 mmHg 45%
    14:00 +17°C° 0 mm 5 m/S 742 mmHg 44%
    15:00 +17°C° 0 mm 4 m/S 743 mmHg 46%
    16:00 +17°C° 0 mm 4 m/S 743 mmHg 49%
    17:00 +17°C° 0 mm 3 m/S 743 mmHg 52%
    18:00 +14°C° 0 mm 3 m/S 743 mmHg 59%
    19:00 +13°C° 0 mm 2 m/S 743 mmHg 67%
    20:00 +11°C° 0 mm 1 m/S 744 mmHg 75%
    21:00 +10°C° 0 mm 1 m/S 744 mmHg 77%
    22:00 +10°C° 0 mm 1 m/S 744 mmHg 80%
    23:00 +9°C° 0 mm 1 m/S 745 mmHg 82%

    23 August, Donnerstag

    Zeit Temperatur Niederschläge Wind Luftdruck Luftfeuchtigkeit
    00:00 +9°C° 0 mm 1 m/S 745 mmHg 83%
    01:00 +9°C° 0 mm 1 m/S 745 mmHg 84%
    02:00 +8°C° 0 mm 1 m/S 745 mmHg 85%
    03:00 +8°C° 0 mm 1 m/S 745 mmHg 85%
    04:00 +8°C° 0 mm 1 m/S 745 mmHg 86%
    05:00 +8°C° 0 mm 1 m/S 745 mmHg 86%
    06:00 +9°C° 0 mm 2 m/S 745 mmHg 78%
    07:00 +12°C° 0 mm 2 m/S 745 mmHg 71%
    08:00 +14°C° 0 mm 2 m/S 745 mmHg 63%
    09:00 +16°C° 0 mm 2 m/S 745 mmHg 58%
    10:00 +17°C° 0 mm 3 m/S 745 mmHg 52%
    11:00 +19°C° 0 mm 3 m/S 745 mmHg 47%
    12:00 +20°C° 0 mm 3 m/S 745 mmHg 46%
    13:00 +20°C° 0 mm 3 m/S 745 mmHg 44%
    14:00 +21°C° 0 mm 3 m/S 744 mmHg 43%
    15:00 +20°C° 0 mm 3 m/S 744 mmHg 47%
    16:00 +20°C° 0 mm 2 m/S 744 mmHg 51%
    17:00 +20°C° 0 mm 2 m/S 744 mmHg 56%
    18:00 +17°C° 0 mm 2 m/S 744 mmHg 63%
    19:00 +15°C° 0 mm 2 m/S 744 mmHg 70%
    20:00 +13°C° 0 mm 2 m/S 744 mmHg 78%
    21:00 +12°C° 0 mm 2 m/S 744 mmHg 81%
    22:00 +12°C° 0 mm 2 m/S 744 mmHg 84%
    23:00 +10°C° 0 mm 2 m/S 744 mmHg 87%

    24 August, Freitag

    Zeit Temperatur Niederschläge Wind Luftdruck Luftfeuchtigkeit
    00:00 +10°C° 0 mm 2 m/S 744 mmHg 89%
    01:00 +9°C° 0 mm 2 m/S 744 mmHg 92%
    02:00 +9°C° 0 mm 2 m/S 744 mmHg 94%
    03:00 +9°C° 0 mm 2 m/S 744 mmHg 94%
    04:00 +8°C° 0 mm 2 m/S 744 mmHg 95%
    05:00 +8°C° 0 mm 2 m/S 744 mmHg 96%
    06:00 +10°C° 0 mm 2 m/S 744 mmHg 87%
    07:00 +13°C° 0 mm 2 m/S 744 mmHg 79%
    08:00 +16°C° 0 mm 2 m/S 744 mmHg 70%
    09:00 +17°C° 0 mm 2 m/S 744 mmHg 64%
    10:00 +19°C° 0 mm 3 m/S 744 mmHg 57%
    11:00 +21°C° 0 mm 3 m/S 743 mmHg 50%
    12:00 +22°C° 0 mm 3 m/S 743 mmHg 48%
    13:00 +22°C° 0 mm 3 m/S 743 mmHg 47%
    14:00 +24°C° 0 mm 3 m/S 743 mmHg 45%
    15:00 +22°C° 0 mm 3 m/S 743 mmHg 49%
    16:00 +23°C° 0 mm 2 m/S 742 mmHg 54%
    17:00 +23°C° 0 mm 2 m/S 742 mmHg 58%
    18:00 +19°C° 0 mm 2 m/S 742 mmHg 66%
    19:00 +17°C° 0 mm 2 m/S 742 mmHg 73%
    20:00 +15°C° 0 mm 2 m/S 742 mmHg 80%
    21:00 +14°C° 0 mm 2 m/S 742 mmHg 82%
    22:00 +14°C° 0 mm 2 m/S 742 mmHg 85%
    23:00 +13°C° 0 mm 2 m/S 742 mmHg 88%

    25 August, Samstag

    Zeit Temperatur Niederschläge Wind Luftdruck Luftfeuchtigkeit
    00:00 +12°C° 0 mm 2 m/S 742 mmHg 89%
    01:00 +12°C° 0 mm 2 m/S 742 mmHg 90%
    02:00 +12°C° 0 mm 2 m/S 742 mmHg 92%
    03:00 +10°C° 0 mm 2 m/S 742 mmHg 91%
    04:00 +10°C° 0 mm 2 m/S 742 mmHg 91%
    05:00 +10°C° 0 mm 2 m/S 742 mmHg 91%
    06:00 +13°C° 0 mm 2 m/S 742 mmHg 83%
    07:00 +14°C° 0 mm 3 m/S 742 mmHg 74%
    08:00 +17°C° 0 mm 3 m/S 742 mmHg 66%
    09:00 +19°C° 0 mm 3 m/S 741 mmHg 59%
    10:00 +21°C° 0 mm 4 m/S 741 mmHg 53%
    11:00 +22°C° 0 mm 4 m/S 741 mmHg 47%
    12:00 +23°C° 0 mm 4 m/S 741 mmHg 45%
    13:00 +23°C° 0 mm 4 m/S 741 mmHg 44%
    14:00 +25°C° 0 mm 4 m/S 741 mmHg 42%
    15:00 +24°C° 0 mm 3 m/S 740 mmHg 47%
    16:00 +24°C° 0 mm 3 m/S 740 mmHg 52%
    17:00 +23°C° 0 mm 2 m/S 740 mmHg 57%
    18:00 +20°C° 0 mm 2 m/S 740 mmHg 63%
    19:00 +18°C° 0 mm 2 m/S 740 mmHg 70%
    20:00 +16°C° 0 mm 2 m/S 740 mmHg 77%
    21:00 +16°C° 0 mm 2 m/S 740 mmHg 78%
    22:00 +15°C° 0 mm 2 m/S 740 mmHg 79%
    23:00 +15°C° 0 mm 2 m/S 740 mmHg 81%
    Mehr zeigen